Regional Weather Roundup
Issued by NWS

Home | Current Version | Previous Version | Graphics & Text | Print | Product List | Glossary Off
Versions: 1 2 3 4 5 6 7 8 9 10 11 12 13 14 15 16 17 18 19 20 21 22 23 24 25 26 27 28 29 30 31 32 33 34 35 36 37 38 39 40 41 42 43 44 45 46 47 48 49 50

000
ASUS43 KDTX 211410
RWRMI
MICHIGAN HOURLY REGIONAL WEATHER ROUNDUP
NATIONAL WEATHER SERVICE DETROIT/PONTIAC MI
900 AM EST FRI NOV 21 2014

NOTE: "FAIR" INDICATES FEW OR NO CLOUDS BELOW 12,000 FEET WITH NO
SIGNIFICANT WEATHER AND/OR OBSTRUCTION TO VISIBILITY.

MIZ047>049-052>055-059>063-066>070-074>076-081>083-211500-
SOUTHEAST LOWER MICHIGAN

CITY           SKY/WX    TMP DP  RH WIND       PRES   REMARKS
ADRIAN         SUNNY     17  11  77 W5        30.44R WCI  10
ALMA           MOSUNNY   10   8  94 CALM      30.40R
ANN ARBOR      MOSUNNY   11   8  88 SW3       30.42R
BAD AXE        SUNNY     13  11  90 SW6       30.37R WCI   4
CARO           SUNNY      9   5  85 S3        30.39R
DETROIT CITY   SUNNY     16   9  74 W6        30.44R WCI   7
DETROIT        MOSUNNY   18  10  71 W6        30.44R WCI  10
FLINT          MOSUNNY    9   5  84 SW6       30.41R WCI  -1
GROSSE ILE     SUNNY     18  10  73 NW7       30.43R WCI   8
HILLSDALE      CLOUDY    15  13  90 CALM      30.39R
HOWELL         MOSUNNY   10   9  92 SW6       30.39R WCI   1

CITY           SKY/WX    TMP DP  RH WIND       PRES   REMARKS
JACKSON        SUNNY     15  11  83 SW6       30.41R WCI   6
LAMBERTVILLE   SUNNY     23  14  68 W3        30.45R
LANSING        MOSUNNY   12   8  84 CALM      30.41R
LAPEER         FAIR      11   8  91 W5        30.39R WCI   2
MASON          SUNNY      8   5  89 CALM      30.41R
MT. CLEMENS    SUNNY     14   9  80 W9        30.39R WCI   2
PONTIAC        MOSUNNY   11   6  81 CALM      30.38R
PORT HOPE        N/A     21  10  62 W10G20    30.34R WCI  10
PORT HURON     FAIR      10   9  92 W5        30.41R WCI   2
TRI CITIES     SUNNY     13   8  81 SW8       30.40R WCI   2
TROY           SUNNY     17  11  76 W6        30.43R WCI   8
SAGINAW HB     SUNNY     14  10  85 SW8       30.40R WCI   3
$$
MIZ043>046-050>051-056>058-064>065-071>073-077>080-211500-
SOUTHWEST LOWER MICHIGAN

CITY           SKY/WX    TMP DP  RH WIND       PRES   REMARKS
BATTLE CREEK   PTSUNNY   18  12  77 SE5       30.40S HAZE    WCI  11
BENTON HARBOR  PTSUNNY   23  15  71 S3        30.43R
BIG RAPIDS     MOSUNNY    8   5  89 CALM      30.36R
COLDWATER      MOSUNNY   16  14  93 CALM      30.41R
FREMONT        FAIR      16  11  82 CALM      30.38R
HOLLAND        PTSUNNY   18  12  77 SE5       30.42R WCI  11
GRAND RAPIDS   PTSUNNY   12   8  84 S5        30.40R WCI   4
IONIA          FAIR       9   6  90 SW6       30.40R WCI  -1
KALAMAZOO      MOSUNNY   15  12  88 S5        30.42R WCI   8
LUDINGTON      CLOUDY    17  13  81 CALM      30.39R
MARSHALL       MOSUNNY   14  12  91 CALM      30.41R
MOUNT PLEASANT MOSUNNY   13  11  90 SW5       30.38R WCI   5
MUSKEGON       PTSUNNY   20  12  71 SE5       30.41R WCI  13
SOUTH HAVEN    PTSUNNY   25  16  70 CALM      30.42R
$$
MIZ016>042-211500-
NORTHERN LOWER MICHIGAN

CITY           SKY/WX    TMP DP  RH WIND       PRES   REMARKS
BEAVER ISLAND  CLOUDY    23  15  71 W10G17    30.30R WCI  12
BELLAIRE       CLOUDY    23  14  67 SW5       30.34R WCI  17
CADILLAC       FLURRIES  11   8  87 SW3       30.30R
CHARLEVOIX     MOCLDY    23  12  62 W9G17     30.34R WCI  13
FRANKFORT      MOCLDY    22  14  70 W5        30.35S WCI  16
GAYLORD        FLURRIES  14  11  87 SW7       30.27R WCI   4
GRAYLING       SUNNY     13  10  87 SW7       30.30R WCI   3
HARBOR SPRINGS CLOUDY    22  11  63 W6        30.29R WCI  14
HOUGHTON LAKE  PTSUNNY   12   9  87 W5        30.32R WCI   4
MANISTEE       CLOUDY    21  10  63 W5        30.36S WCI  15
OSCODA         SUNNY     13   9  83 SW8       30.34R WCI   2
PELLSTON       FLURRIES  20  12  71 SW6       30.30R WCI  12
ROGERS CITY    CLOUDY    16  14  89 SW7       30.31R WCI   7
TRAVERSE CITY  FLURRIES  19  13  77 S6        30.34R WCI  11
$$
MIZ007>008-015-211500-
EASTERN UPPER MICHIGAN

CITY           SKY/WX    TMP DP  RH WIND       PRES   REMARKS
KINROSS        CLOUDY    12  12 100 SW7       30.26R WCI   2
MACKINAC ISLAN CLOUDY    21  16  79 W9        30.28R WCI  11
NEWBERRY       PTCLDY     9   5  84 SW8       30.26R WCI  -4
S. S. MARIE    CLOUDY    13   9  84 CALM      30.29R
MUNISING         N/A     13   4  67 SW6       30.28R WCI   4
$$
MIZ004>006-011>014-085-211500-
CENTRAL UPPER MICHIGAN

CITY           SKY/WX    TMP DP  RH WIND       PRES   REMARKS
MANISTIQUE     PTCLDY    10   4  76 W10       30.29S WCI  -4
ESCANABA       MOCLDY     7   1  78 W10       30.31S WCI  -8
MENOMINEE      MOCLDY     9   1  72 CALM      30.34R
SAWYER-GWINN   PTCLDY     3   0  85 S3        30.22S
$$
MIZ001>003-009>011-084-211500-
WESTERN UPPER MICHIGAN

CITY           SKY/WX    TMP DP  RH WIND       PRES   REMARKS
IRON MOUNTAIN  MOCLDY     6   0  76 S3        30.25S
HOUGHTON       CLOUDY    12   4  70 SW9       30.17S WCI   0
COPPER HARBOR    N/A     17  11  77 W10G18    30.18S WCI   5
IRONWOOD       CLOUDY     9   0  66 S6        30.15S WCI  -1
$$

ABBREVIATIONS USED IN REMARKS
   TC - TEMPERATURE IN CELSIUS
  WCI - WIND CHILL INDEX
   HX - HEAT INDEX
  VSB - VISIBILITY




USA.gov is the U.S. government's official web portal to all federal, state and local government web resources and services.